STARLINK-1801, 46701

Orbit data source: Space-Track

STARLINK-1801, 46701 is a payload satellite owned by SpaceX/Seattle (US) in LEO that was launched on Sun, 18 Oct 2020 UTC via an FALCON 9 launch vehicle from the Air Force Eastern Test Range (AFETR). Payload-class satellites include a variety of spacecraft equipped with specific instruments for various scientific and technological missions. These include communications satellites like Starlink; space stations such as the ISS; scientific satellites like the Hubble; Earth observation satellites from companies like Planet Labs, Umbra, and HawkEye 360; GPS; miniature CubeSats for education and research; and military/defense satellites.

Loading next visibility...
Identifier
46701, 2020-073AH
Orbit
LEO
Country
Flag of USUS
Related business
Manufacturer
SpaceX/Seattle
Mission
Operational Commercial Communications
Bus & Motor
STARLINK, Unknown motor
Mass
260 kg wet, ~248 kg dry
Launch date (UTC)
2020-10-18 (5 years ago)
Launch vehicle
FALCON 9
Launch site
Air Force Eastern Test Range (AFETR)
Object type
Payload
Rocket body
Debris
Shape & HBR
Box + 1 Pan, 10.1 m
Radar Cross Section
13.562 m², Large (>1 m²)

Expand to show TLE details & history
Last TLE update: 7 hours ago

TLE from 7 hours ago
0 STARLINK-1801
1 46701U 20073AH  25303.33335648  .01778486  00000-0  62231-1 0  9994
2 46701  53.0549 106.1206 0001392 104.2025 308.4673 15.26035577  5817
Epoch: 2025-10-30T08:00Z
TLE epoch observation values (Epoch: 2025-10-30T08:00:01.999Z)
Latitude
39.57693°
Longitude
-14.59579°
Altitude
490.572 km
Speed
7.625 km/s
True Right ascension
09h 37m 13s
True Declination
39° 24' 06"
Sunlit
Object was in daylight at epoch
Visualization orbit readout
Latitude
Unknown
Longitude
Unknown
Altitude
Unknown
Speed
Unknown
Apparent Right ascension
Unknown
Apparent Declination
Unknown
Sunlit
N/A
Visualization observer readout
Local Sidereal Time
10:54:39
Azimuth
Unknown
Elevation
Unknown
Doppler factor
Unknown
Orbital elements
Apogee altitude
488.906 km
Perigee altitude
486.995 km
Semi-major axis
6,866.087 km
Eccentricity
0.00014
Inclination
53.0549°
RAAN
106.1206°
Arg. of periapsis
104.2025°
True anomaly
308.45481°
Mean anomaly
308.4673°
Eccentric anomaly
308.46105°
Mean motion
3.81486 °/min
Orbital period
94.37 mins
BSTAR
0.062231
Loading maneuver chart data...
Computing Atmospheric mass density...

Documentation

Showing up to 5 results
|